1995,1,31,17,2110
1995,1,31,18,2480
1995,1,31,19,2800
1995,1,31,20,3070
1995,1,31,21,3240
1995,1,31,22,3300
1995,1,31,23,3240
1995,2,1,0,3120
1995,2,1,1,2910
1995,2,1,2,2620
1995,2,1,3,2320
1995,2,1,4,2070
1995,2,1,5,1690
1995,2,1,6,1380
1995,2,1,7,1120
1995,2,1,8,950
1995,2,1,9,830
1995,2,1,10,730
1995,2,1,11,630
1995,2,1,12,580
1995,2,1,13,580
1995,2,1,14,700
1995,2,1,15,990
1995,2,1,16,1340
1995,2,1,17,1730
1995,2,1,18,2100
1995,2,1,19,2440
1995,2,1,20,2730
1995,2,1,21,2950
1995,2,1,22,3050
1995,2,1,23,3090
1995,2,2,0,3060
1995,2,2,1,2950
1995,2,2,2,2770
1995,2,2,3,2560
1995,2,2,4,2330
1995,2,2,5,2070
1995,2,2,6,1820
1995,2,2,7,1570
1995,2,2,8,1370
1995,2,2,9,1220
1995,2,2,10,1140
1995,2,2,11,1040
1995,2,2,12,960
1995,2,2,13,910
1995,2,2,14,940
1995,2,2,15,1080
1995,2,2,16,1320
1995,2,2,17,1640
1995,2,2,18,1980
1995,2,2,19,2250
1995,2,2,20,2500
1995,2,2,21,2720
1995,2,2,22,2870
1995,2,2,23,2910
1995,2,3,0,2880
1995,2,3,1,2830
1995,2,3,2,2760
1995,2,3,3,2630
1995,2,3,4,2450
1995,2,3,5,2250
1995,2,3,6,2050
1995,2,3,7,1870
1995,2,3,8,1680
1995,2,3,9,1520
1995,2,3,10,1410
1995,2,3,11,1310
1995,2,3,12,1170
1995,2,3,13,1060
1995,2,3,14,1060
1995,2,3,15,1070
1995,2,3,16,1140
1995,2,3,17,1340
1995,2,3,18,1600
1995,2,3,19,1840
1995,2,3,20,2060
1995,2,3,21,2230
1995,2,3,22,2340
1995,2,3,23,2380
1995,2,4,0,2350
1995,2,4,1,2340
1995,2,4,2,2320
1995,2,4,3,2250
1995,2,4,4,2160
1995,2,4,5,2070
1995,2,4,6,1990
1995,2,4,7,1850
1995,2,4,8,1720
1995,2,4,9,1640
1995,2,4,10,1560
1995,2,4,11,1510
1995,2,4,12,1450
1995,2,4,13,1370
1995,2,4,14,1310
1995,2,4,15,1310
1995,2,4,16,1380
1995,2,4,17,1510
1995,2,4,18,1690
1995,2,4,19,1870
1995,2,4,20,1980
1995,2,4,21,2090
1995,2,4,22,2170
1995,2,4,23,2190
1995,2,5,0,2140
1995,2,5,1,2080
1995,2,5,2,2070
1995,2,5,3,2060
1995,2,5,4,2030
1995,2,5,5,1990
1995,2,5,6,1940
1995,2,5,7,1900
1995,2,5,8,1830
1995,2,5,9,1770
1995,2,5,10,1750
1995,2,5,11,1740
1995,2,5,12,1720
1995,2,5,13,1660
1995,2,5,14,1580
1995,2,5,15,1560
1995,2,5,16,1580
1995,2,5,17,1650
1995,2,5,18,1730
1995,2,5,19,1840
1995,2,5,20,1940
1995,2,5,21,1980
1995,2,5,22,1990
1995,2,5,23,1980
1995,2,6,0,1940
1995,2,6,1,1870
1995,2,6,2,1800
1995,2,6,3,1790
1995,2,6,4,1790
1995,2,6,5,1800
1995,2,6,6,1830
1995,2,6,7,1840
1995,2,6,8,1840
1995,2,6,9,1850
1995,2,6,10,1870
1995,2,6,11,1930
1995,2,6,12,1980
1995,2,6,13,1980
1995,2,6,14,1860
1995,2,6,15,1850
1995,2,6,16,1870
1995,2,6,17,1990
1995,2,6,18,2040
1995,2,6,19,2080
1995,2,6,20,2090
1995,2,6,21,2090
1995,2,6,22,2020
1995,2,6,23,1950
1995,2,7,0,1860
1995,2,7,1,1750
1995,2,7,2,1670
1995,2,7,3,1580
1995,2,7,4,1530
1995,2,7,5,1550
1995,2,7,6,1610
1995,2,7,7,1660
1995,2,7,8,1740
1995,2,7,9,1830
1995,2,7,10,1920
1995,2,7,11,2000
1995,2,7,12,2120
1995,2,7,13,2200
1995,2,7,14,2220
1995,2,7,15,2230
1995,2,7,16,2280
1995,2,7,17,2340
1995,2,7,18,2350
1995,2,7,19,2340
1995,2,7,20,2270
1995,2,7,21,2200
1995,2,7,22,2090
1995,2,7,23,1920
1995,2,8,0,1720
1995,2,8,1,1580
1995,2,8,2,1410
1995,2,8,3,1240
1995,2,8,4,1140
1995,2,8,5,1140
1995,2,8,6,1150
1995,2,8,7,1210
1995,2,8,8,1350
1995,2,8,9,1520
1995,2,8,10,1760
1995,2,8,11,1920
1995,2,8,12,2080
1995,2,8,13,2210
1995,2,8,14,2310
1995,2,8,15,2450
1995,2,8,16,2530
1995,2,8,17,2580
1995,2,8,18,2600
1995,2,8,19,2550
1995,2,8,20,2460
1995,2,8,21,2330
1995,2,8,22,2150
1995,2,8,23,1910
1995,2,9,0,1680
1995,2,9,1,1490
1995,2,9,2,1270
1995,2,9,3,1080
1995,2,9,4,910
1995,2,9,5,790
1995,2,9,6,760
1995,2,9,7,820
1995,2,9,8,950
1995,2,9,9,1140
1995,2,9,10,1350
1995,2,9,11,1580
1995,2,9,12,1800
1995,2,9,13,2000
1995,2,9,14,2230
1995,2,9,15,2410
1995,2,9,16,2550
1995,2,9,17,2650
1995,2,9,18,2720
1995,2,9,19,2740
1995,2,9,20,2680
1995,2,9,21,2530
1995,2,9,22,2360
1995,2,9,23,2140
1995,2,10,0,1900
1995,2,10,1,1660
1995,2,10,2,1430
1995,2,10,3,1200
1995,2,10,4,1000
1995,2,10,5,880
1995,2,10,6,810
1995,2,10,7,800
1995,2,10,8,830
1995,2,10,9,960
1995,2,10,10,1160
1995,2,10,11,1450
1995,2,10,12,1730
1995,2,10,13,1990
1995,2,10,14,2230
1995,2,10,15,2470
1995,2,10,16,2680
1995,2,10,17,2850
1995,2,10,18,2970
1995,2,10,19,3020
1995,2,10,20,2990
1995,2,10,21,2880
1995,2,10,22,2700
1995,2,10,23,2430
1995,2,11,0,2140
1995,2,11,1,1860
1995,2,11,2,1590
1995,2,11,3,1320
1995,2,11,4,1100
1995,2,11,5,920
1995,2,11,6,790
1995,2,11,7,720
1995,2,11,8,710
1995,2,11,9,810
1995,2,11,10,940
1995,2,11,11,1140
1995,2,11,12,1430
1995,2,11,13,1770
1995,2,11,14,2050
1995,2,11,15,2320
1995,2,11,16,2590
1995,2,11,17,2820
1995,2,11,18,2990
1995,2,11,19,3060
1995,2,11,20,3080
1995,2,11,21,3020
1995,2,11,22,2880
1995,2,11,23,2650
1995,2,12,0,2380
1995,2,12,1,2110
1995,2,12,2,1810
1995,2,12,3,1540
1995,2,12,4,1290
1995,2,12,5,1080
1995,2,12,6,930
1995,2,12,7,800
1995,2,12,8,740
1995,2,12,9,740
1995,2,12,10,810
1995,2,12,11,960
1995,2,12,12,1190
1995,2,12,13,1490
1995,2,12,14,1820
1995,2,12,15,2160
1995,2,12,16,2440
1995,2,12,17,2700
1995,2,12,18,2910
1995,2,12,19,3040
1995,2,12,20,3090
1995,2,12,21,3050
1995,2,12,22,2960
1995,2,12,23,2750
1995,2,13,0,2490
1995,2,13,1,2240
1995,2,13,2,1980
1995,2,13,3,1690
1995,2,13,4,1380
1995,2,13,5,1130
1995,2,13,6,990
1995,2,13,7,840
1995,2,13,8,740
1995,2,13,9,630
1995,2,13,10,620
1995,2,13,11,700
1995,2,13,12,870
1995,2,13,13,1120
1995,2,13,14,1420
1995,2,13,15,1800
1995,2,13,16,2120
1995,2,13,17,2380
1995,2,13,18,2660
1995,2,13,19,2880
1995,2,13,20,3000
1995,2,13,21,3050
1995,2,13,22,2990
1995,2,13,23,2850
1995,2,14,0,2620
1995,2,14,1,2350
1995,2,14,2,2080
1995,2,14,3,1800
1995,2,14,4,1530
1995,2,14,5,1290
1995,2,14,6,1070
1995,2,14,7,900
1995,2,14,8,770
1995,2,14,9,660
1995,2,14,10,590
1995,2,14,11,600
1995,2,14,12,670
1995,2,14,13,840
1995,2,14,14,1130
1995,2,14,15,1510
1995,2,14,16,1880
1995,2,14,17,2150
1995,2,14,18,2420
1995,2,14,19,2670
1995,2,14,20,2850
1995,2,14,21,2950
1995,2,14,22,2940
1995,2,14,23,2860
1995,2,15,0,2690
1995,2,15,1,2510
1995,2,15,2,2270
1995,2,15,3,2030
1995,2,15,4,1768
1995,2,15,5,1510
1995,2,15,6,1280
1995,2,15,7,1090
1995,2,15,8,970
1995,2,15,9,880
1995,2,15,10,760
1995,2,15,11,690
1995,2,15,12,700
1995,2,15,13,770
1995,2,15,14,970
1995,2,15,15,1310
1995,2,15,16,1700
1995,2,15,17,1980
1995,2,15,18,2270
1995,2,15,19,2540
1995,2,15,20,2740
1995,2,15,21,2860
1995,2,15,22,2880
1995,2,15,23,2850
1995,2,16,0,2760
1995,2,16,1,2640
1995,2,16,2,2440
1995,2,16,3,2220
1995,2,16,4,2000
1995,2,16,5,1780
1995,2,16,6,1580
1995,2,16,7,1390
1995,2,16,8,1240
1995,2,16,9,1150
1995,2,16,10,1040
1995,2,16,11,930
1995,2,16,12,860
1995,2,16,13,830
1995,2,16,14,930
1995,2,16,15,1150
1995,2,16,16,1490
1995,2,16,17,1800
1995,2,16,18,2060
1995,2,16,19,2320
1995,2,16,20,2550
1995,2,16,21,2720
1995,2,16,22,2750
1995,2,16,23,2730
1995,2,17,0,2700
1995,2,17,1,2630
1995,2,17,2,2530
1995,2,17,3,2350
1995,2,17,4,2190
1995,2,17,5,2020
1995,2,17,6,1880
1995,2,17,7,1700
1995,2,17,8,1570
1995,2,17,9,1440
1995,2,17,10,1340
1995,2,17,11,1210
1995,2,17,12,1120
1995,2,17,13,1050
1995,2,17,14,1090
1995,2,17,15,1190
1995,2,17,16,1440
1995,2,17,17,1720
1995,2,17,18,2010
1995,2,17,19,2220
1995,2,17,20,2420
1995,2,17,21,2600
1995,2,17,22,2700
1995,2,17,23,2700
1995,2,18,0,2630
1995,2,18,1,2590
1995,2,18,2,2540
1995,2,18,3,2440
1995,2,18,4,2290
1995,2,18,5,2150
1995,2,18,6,2050
1995,2,18,7,1910
1995,2,18,8,1750
1995,2,18,9,1630
1995,2,18,10,1560
1995,2,18,11,1420
1995,2,18,12,1280
1995,2,18,13,1170
1995,2,18,14,1130
1995,2,18,15,1150
1995,2,18,16,1280
1995,2,18,17,1480
1995,2,18,18,1690
1995,2,18,19,1860
1995,2,18,20,2000
1995,2,18,21,2160
1995,2,18,22,2300
1995,2,18,23,2350
1995,2,19,0,2300
1995,2,19,1,2260
1995,2,19,2,2260
1995,2,19,3,2220
1995,2,19,4,2130
1995,2,19,5,2090
1995,2,19,6,2070
1995,2,19,7,2020
1995,2,19,8,1910
1995,2,19,9,1840
1995,2,19,10,1800
1995,2,19,11,1700
1995,2,19,12,1580
1995,2,19,13,1470
1995,2,19,14,1360
1995,2,19,15,1290
1995,2,19,16,1310
1995,2,19,17,1380
1995,2,19,18,1480
1995,2,19,19,1600
1995,2,19,20,1690
1995,2,19,21,1780
1995,2,19,22,1880
1995,2,19,23,1940
1995,2,20,0,1940
1995,2,20,1,1880
1995,2,20,2,1880
1995,2,20,3,1900
1995,2,20,4,1920
1995,2,20,5,1930
1995,2,20,6,1970
1995,2,20,7,2020
1995,2,20,8,2070
1995,2,20,9,2080
1995,2,20,10,2090
1995,2,20,11,2040
1995,2,20,12,1980
1995,2,20,13,1860
1995,2,20,14,1750
1995,2,20,15,1700
1995,2,20,16,1690
1995,2,20,17,1680
1995,2,20,18,1660
1995,2,20,19,1660
1995,2,20,20,1550
1995,2,20,21,1530
1995,2,20,22,1640
1995,2,20,23,1530
1995,2,21,0,1600
1995,2,21,1,1560
1995,2,21,2,1540
1995,2,21,3,1570
1995,2,21,4,1630
1995,2,21,5,1710
1995,2,21,6,1840
1995,2,21,7,2010
1995,2,21,8,2150
1995,2,21,9,2280
1995,2,21,10,2410
1995,2,21,11,2490
1995,2,21,12,2510
1995,2,21,13,2440
1995,2,21,14,2360
1995,2,21,15,2320
1995,2,21,16,2310
1995,2,21,17,2270
1995,2,21,18,2160
1995,2,21,19,2010
1995,2,21,20,1870
1995,2,21,21,1750
1995,2,21,22,1600
1995,2,21,23,1460
1995,2,22,0,1340
1995,2,22,1,1240
1995,2,22,2,1150
1995,2,22,3,1110
1995,2,22,4,1120
1995,2,22,5,1200
1995,2,22,6,1300
1995,2,22,7,1460
1995,2,22,8,1700
1995,2,22,9,1920
1995,2,22,10,2120
1995,2,22,11,2290
1995,2,22,12,2440
1995,2,22,13,2540
1995,2,22,14,2570
1995,2,22,15,2580
1995,2,22,16,2560
1995,2,22,17,2530
1995,2,22,18,2460
1995,2,22,19,2330
1995,2,22,20,2150
1995,2,22,21,1950
1995,2,22,22,1750
1995,2,22,23,1540
1995,2,23,0,1320
1995,2,23,1,1140
1995,2,23,2,1030
1995,2,23,3,960
1995,2,23,4,890
1995,2,23,5,900
1995,2,23,6,1000
1995,2,23,7,1160
1995,2,23,8,1380
1995,2,23,9,1640
1995,2,23,10,1900
1995,2,23,11,2130
1995,2,23,12,2350
1995,2,23,13,2510
1995,2,23,14,2610
1995,2,23,15,2700
1995,2,23,16,2730
1995,2,23,17,2730
1995,2,23,18,2690
1995,2,23,19,2550
1995,2,23,20,2350
1995,2,23,21,2110
1995,2,23,22,1890
1995,2,23,23,1560
1995,2,24,0,1260
1995,2,24,1,1060
1995,2,24,2,930
1995,2,24,3,770
1995,2,24,4,650
1995,2,24,5,620
1995,2,24,6,640
1995,2,24,7,800
1995,2,24,8,980
1995,2,24,9,1210
1995,2,24,10,1510
1995,2,24,11,1870
1995,2,24,12,2190
1995,2,24,13,2430
1995,2,24,14,2670
1995,2,24,15,2850
1995,2,24,16,2990
1995,2,24,17,3060
1995,2,24,18,3080
1995,2,24,19,3000
1995,2,24,20,2840
1995,2,24,21,2580
1995,2,24,22,2270
1995,2,24,23,1970
1995,2,25,0,1630
1995,2,25,1,1330
1995,2,25,2,1030
1995,2,25,3,820
1995,2,25,4,630
1995,2,25,5,490
1995,2,25,6,450
1995,2,25,7,420
1995,2,25,8,470
1995,2,25,9,620
1995,2,25,10,890
1995,2,25,11,1190
1995,2,25,12,1540
1995,2,25,13,1850
1995,2,25,14,2130
1995,2,25,15,2450
1995,2,25,16,2740
1995,2,25,17,2920
1995,2,25,18,2980
1995,2,25,19,3010
1995,2,25,20,2970
1995,2,25,21,2840
1995,2,25,22,2610
1995,2,25,23,2290
1995,2,26,0,1940
1995,2,26,1,1620
1995,2,26,2,1330
1995,2,26,3,1050
1995,2,26,4,880
1995,2,26,5,720
1995,2,26,6,610
1995,2,26,7,500
1995,2,26,8,520
1995,2,26,9,600
1995,2,26,10,690
1995,2,26,11,950
1995,2,26,12,1270
1995,2,26,13,1670
1995,2,26,14,1990
1995,2,26,15,2290
1995,2,26,16,2630
1995,2,26,17,2870
1995,2,26,18,3020
1995,2,26,19,3110
1995,2,26,20,3130
1995,2,26,21,3060
1995,2,26,22,2890
1995,2,26,23,2610
1995,2,27,0,2270
1995,2,27,1,1980
1995,2,27,2,1670
1995,2,27,3,1370
1995,2,27,4,1080
1995,2,27,5,870
1995,2,27,6,700
1995,2,27,7,590
1995,2,27,8,490
1995,2,27,9,450
1995,2,27,10,480
1995,2,27,11,600
1995,2,27,12,800
1995,2,27,13,1100
1995,2,27,14,1480
1995,2,27,15,1840
1995,2,27,16,2140
1995,2,27,17,2440
1995,2,27,18,2720
1995,2,27,19,2940
1995,2,27,20,3040
1995,2,27,21,3050
1995,2,27,22,2980
1995,2,27,23,2860
1995,2,28,0,2600
1995,2,28,1,2290
1995,2,28,2,2020
1995,2,28,3,1770
1995,2,28,4,1470
1995,2,28,5,1210
1995,2,28,6,1060
1995,2,28,7,960
1995,2,28,8,850
1995,2,28,9,760
1995,2,28,10,710
1995,2,28,11,710
1995,2,28,12,800
1995,2,28,13,1010
1995,2,28,14,1320
1995,2,28,15,1660
1995,2,28,16,2020
1995,2,28,17,2270
1995,2,28,18,2560
1995,2,28,19,2810
1995,2,28,20,2900
1995,2,28,21,2920
1995,2,28,22,2970
1995,2,28,23,2890
1995,3,1,0,2660
1995,3,1,1,2440
1995,3,1,2,2190
1995,3,1,3,1920
1995,3,1,4,1740
1995,3,1,5,1480
1995,3,1,6,1300
1995,3,1,7,1140
1995,3,1,8,1050
1995,3,1,9,930
1995,3,1,10,790
1995,3,1,11,740
1995,3,1,12,720
1995,3,1,13,800
1995,3,1,14,1010
1995,3,1,15,1310
1995,3,1,16,1680
1995,3,1,17,1970
1995,3,1,18,2210
1995,3,1,19,2460
1995,3,1,20,2650
1995,3,1,21,2740
1995,3,1,22,2750
1995,3,1,23,2770
1995,3,2,0,2720
1995,3,2,1,2580
1995,3,2,2,2410
1995,3,2,3,2250
1995,3,2,4,2060
1995,3,2,5,1890
1995,3,2,6,1660
1995,3,2,7,1520
1995,3,2,8,1400
1995,3,2,9,1290
1995,3,2,10,1120
1995,3,2,11,990
1995,3,2,12,910
1995,3,2,13,850
1995,3,2,14,900
1995,3,2,15,1070
1995,3,2,16,1370
1995,3,2,17,1670
1995,3,2,18,1860
1995,3,2,19,2040
1995,3,2,20,2180
1995,3,2,21,2320
1995,3,2,22,2350
1995,3,2,23,2360
1995,3,3,0,2360
1995,3,3,1,2330
1995,3,3,2,2250
1995,3,3,3,2130
1995,3,3,4,1980
1995,3,3,5,1870
1995,3,3,6,1770
1995,3,3,7,1640
1995,3,3,8,1530
1995,3,3,9,1470
1995,3,3,10,1390
1995,3,3,11,1240
1995,3,3,12,1100
1995,3,3,13,990
1995,3,3,14,950
1995,3,3,15,1060
1995,3,3,16,1250
1995,3,3,17,1470
1995,3,3,18,1650
1995,3,3,19,1800
1995,3,3,20,1950
1995,3,3,21,2040
1995,3,3,22,2080
1995,3,3,23,2070
1995,3,4,0,2100
1995,3,4,1,2140
1995,3,4,2,2170
1995,3,4,3,2100
1995,3,4,4,2040
1995,3,4,5,2000
1995,3,4,6,1980
1995,3,4,7,1930
1995,3,4,8,1860
1995,3,4,9,1810
1995,3,4,10,1750
1995,3,4,11,1620
1995,3,4,12,1480
1995,3,4,13,1370
1995,3,4,14,1320
1995,3,4,15,1310
1995,3,4,16,1360
1995,3,4,17,1460
1995,3,4,18,1580
1995,3,4,19,1650
1995,3,4,20,1730
1995,3,4,21,1810
1995,3,4,22,1860
1995,3,4,23,1850
1995,3,5,0,1840
1995,3,5,1,1840
1995,3,5,2,1910
1995,3,5,3,1960
1995,3,5,4,1990
1995,3,5,5,2010
1995,3,5,6,2100
1995,3,5,7,2130
1995,3,5,8,2140
1995,3,5,9,2170
1995,3,5,10,2160
1995,3,5,11,2090
1995,3,5,12,1970
1995,3,5,13,1840
1995,3,5,14,1740
1995,3,5,15,1700
1995,3,5,16,1700
1995,3,5,17,1720
1995,3,5,18,1730
1995,3,5,19,1740
1995,3,5,20,1680
1995,3,5,21,1680
1995,3,5,22,1700
1995,3,5,23,1670
1995,3,6,0,1600
1995,3,6,1,1560
1995,3,6,2,1580
1995,3,6,3,1630
1995,3,6,4,1690
1995,3,6,5,1810
1995,3,6,6,1960
1995,3,6,7,2090
1995,3,6,8,2170
1995,3,6,9,2240
1995,3,6,10,2300
1995,3,6,11,2300
1995,3,6,12,2230
1995,3,6,13,2140
1995,3,6,14,2040
1995,3,6,15,1980
1995,3,6,16,1940
1995,3,6,17,1930
1995,3,6,18,1880
1995,3,6,19,1810
1995,3,6,20,1700
1995,3,6,21,1600
1995,3,6,22,1550
1995,3,6,23,1470
1995,3,7,0,1370
1995,3,7,1,1280
1995,3,7,2,1270
1995,3,7,3,1310
1995,3,7,4,1360
1995,3,7,5,1520
1995,3,7,6,1710
1995,3,7,7,1920
1995,3,7,8,2070
1995,3,7,9,2210
1995,3,7,10,2340
1995,3,7,11,2420
1995,3,7,12,2420
1995,3,7,13,2370
1995,3,7,14,2320
1995,3,7,15,2280
1995,3,7,16,2230
1995,3,7,17,2140
1995,3,7,18,2050
1995,3,7,19,1940
1995,3,7,20,1800
1995,3,7,21,1620
1995,3,7,22,1450
1995,3,7,23,1310
1995,3,8,0,1180
1995,3,8,1,1050
1995,3,8,2,980
1995,3,8,3,950
1995,3,8,4,960
1995,3,8,5,1080
1995,3,8,6,1310
1995,3,8,7,1560
1995,3,8,8,1810
1995,3,8,9,2020
1995,3,8,10,2190
1995,3,8,11,2340
1995,3,8,12,2440
1995,3,8,13,2490
1995,3,8,14,2480
1995,3,8,15,2480
1995,3,8,16,2490
1995,3,8,17,2420
1995,3,8,18,2320
1995,3,8,19,2170
1995,3,8,20,2000
1995,3,8,21,1820
1995,3,8,22,1630
1995,3,8,23,1420
1995,3,9,0,1240
1995,3,9,1,1110
1995,3,9,2,980
1995,3,9,3,880
1995,3,9,4,830
1995,3,9,5,840
1995,3,9,6,970
1995,3,9,7,1200
1995,3,9,8,1480
1995,3,9,9,1720
1995,3,9,10,1930
1995,3,9,11,2110
1995,3,9,12,2260
1995,3,9,13,2410
1995,3,9,14,2460
1995,3,9,15,2480
1995,3,9,16,2530
1995,3,9,17,2540
1995,3,9,18,2460
1995,3,9,19,2300
1995,3,9,20,2130
1995,3,9,21,1970
1995,3,9,22,1750
1995,3,9,23,1540
1995,3,10,0,1300
1995,3,10,1,1110
1995,3,10,2,940
1995,3,10,3,810
1995,3,10,4,710
1995,3,10,5,650
1995,3,10,6,720
1995,3,10,7,890
1995,3,10,8,1130
1995,3,10,9,1390
1995,3,10,10,1630
1995,3,10,11,1870
1995,3,10,12,2090
1995,3,10,13,2290
1995,3,10,14,2440
1995,3,10,15,2530
1995,3,10,16,2610
1995,3,10,17,2630
1995,3,10,18,2600
1995,3,10,19,2500
1995,3,10,20,2320
1995,3,10,21,2130
1995,3,10,22,1880
1995,3,10,23,1660
1995,3,11,0,1430
1995,3,11,1,1220
1995,3,11,2,1030
1995,3,11,3,880
1995,3,11,4,750
1995,3,11,5,680
1995,3,11,6,720
1995,3,11,7,800
1995,3,11,8,980
1995,3,11,9,1200
1995,3,11,10,1490
1995,3,11,11,1770
1995,3,11,12,2020
1995,3,11,13,2210
1995,3,11,14,2360
1995,3,11,15,2520
1995,3,11,16,2660
1995,3,11,17,2710
1995,3,11,18,2690
1995,3,11,19,2600
1995,3,11,20,2440
1995,3,11,21,2240
1995,3,11,22,2000
1995,3,11,23,1750
1995,3,12,0,1490
1995,3,12,1,1250
1995,3,12,2,1040
1995,3,12,3,870
1995,3,12,4,730
1995,3,12,5,680
1995,3,12,6,650
1995,3,12,7,690
1995,3,12,8,820
1995,3,12,9,1000
1995,3,12,10,1200
1995,3,12,11,1520
1995,3,12,12,1830
1995,3,12,13,2080
1995,3,12,14,2320
1995,3,12,15,2560
1995,3,12,16,2760
1995,3,12,17,2890
1995,3,12,18,2960
1995,3,12,19,2940
1995,3,12,20,2840
1995,3,12,21,2700
1995,3,12,22,2500
1995,3,12,23,2200
1995,3,13,0,1950
1995,3,13,1,1710
1995,3,13,2,1440
1995,3,13,3,1230
1995,3,13,4,1060
1995,3,13,5,920
1995,3,13,6,790
1995,3,13,7,760
1995,3,13,8,740
1995,3,13,9,790
1995,3,13,10,930
1995,3,13,11,1140
1995,3,13,12,1400
1995,3,13,13,1670
1995,3,13,14,1930
1995,3,13,15,2180
1995,3,13,16,2420
1995,3,13,17,2600
1995,3,13,18,2700
1995,3,13,19,2750
1995,3,13,20,2770
1995,3,13,21,2720
1995,3,13,22,2590
1995,3,13,23,2360
1995,3,14,0,2090
1995,3,14,1,1870
1995,3,14,2,1640
1995,3,14,3,1430
1995,3,14,4,1230
1995,3,14,5,1070
1995,3,14,6,980
1995,3,14,7,940
1995,3,14,8,890
1995,3,14,9,870
1995,3,14,10,930
1995,3,14,11,1060
1995,3,14,12,1250
1995,3,14,13,1500
1995,3,14,14,1770
1995,3,14,15,2030
1995,3,14,16,2270
1995,3,14,17,2480
1995,3,14,18,2640
1995,3,14,19,2750
1995,3,14,20,2790
1995,3,14,21,2750
1995,3,14,22,2690
1995,3,14,23,2540
1995,3,15,0,2330
1995,3,15,1,2110
1995,3,15,2,1910
1995,3,15,3,1700
1995,3,15,4,1500
1995,3,15,5,1320
1995,3,15,6,1180
1995,3,15,7,1110
1995,3,15,8,1020
1995,3,15,9,930
1995,3,15,10,900
1995,3,15,11,950
1995,3,15,12,1070
1995,3,15,13,1230
1995,3,15,14,1460
1995,3,15,15,1720
1995,3,15,16,1990
1995,3,15,17,2230
1995,3,15,18,2480
1995,3,15,19,2650
1995,3,15,20,2710
1995,3,15,21,2700
1995,3,15,22,2720
1995,3,15,23,2650
1995,3,16,0,2480
1995,3,16,1,2300
1995,3,16,2,2150
1995,3,16,3,1980
1995,3,16,4,1810
1995,3,16,5,1630
1995,3,16,6,1450
1995,3,16,7,1360
1995,3,16,8,1290
1995,3,16,9,1160
1995,3,16,10,1060
1995,3,16,11,1030
1995,3,16,12,1010
1995,3,16,13,1090
1995,3,16,14,1240
1995,3,16,15,1490
1995,3,16,16,1740
1995,3,16,17,1970
1995,3,16,18,2160
1995,3,16,19,2330
1995,3,16,20,2450
1995,3,16,21,2480
1995,3,16,22,2500
1995,3,16,23,2480
1995,3,17,0,2400
1995,3,17,1,2300
1995,3,17,2,2180
1995,3,17,3,2070
1995,3,17,4,1970
1995,3,17,5,1840
1995,3,17,6,1720
1995,3,17,7,1660
1995,3,17,8,1600
1995,3,17,9,1520
1995,3,17,10,1360
1995,3,17,11,1160
1995,3,17,12,1010
1995,3,17,13,960
1995,3,17,14,940
1995,3,17,15,1030
1995,3,17,16,1200
1995,3,17,17,1340
1995,3,17,18,1430
1995,3,17,19,1570
1995,3,17,20,1690
1995,3,17,21,1810
1995,3,17,22,1830
1995,3,17,23,1830
1995,3,18,0,1800
1995,3,18,1,1760
1995,3,18,2,1770
1995,3,18,3,1760
1995,3,18,4,1750
1995,3,18,5,1720
1995,3,18,6,1720
1995,3,18,7,1740
1995,3,18,8,1730
1995,3,18,9,1680
1995,3,18,10,1580
1995,3,18,11,1440
1995,3,18,12,1370
1995,3,18,13,1330
1995,3,18,14,1290
1995,3,18,15,1300
1995,3,18,16,1340
1995,3,18,17,1380
1995,3,18,18,1430
1995,3,18,19,1530
1995,3,18,20,1680
1995,3,18,21,1790
1995,3,18,22,1820
1995,3,18,23,1820
1995,3,19,0,1800
1995,3,19,1,1860
1995,3,19,2,1930
1995,3,19,3,2010
1995,3,19,4,2070
1995,3,19,5,2160
1995,3,19,6,2260
1995,3,19,7,2330
1995,3,19,8,2330
1995,3,19,9,2260
1995,3,19,10,2190
1995,3,19,11,2060
1995,3,19,12,1960
1995,3,19,13,1880
1995,3,19,14,1740
1995,3,19,15,1640
1995,3,19,16,1580
1995,3,19,17,1530
1995,3,19,18,1480
1995,3,19,19,1450
1995,3,19,20,1470
1995,3,19,21,1510
1995,3,19,22,1550
1995,3,19,23,1530
1995,3,20,0,1500
1995,3,20,1,1550
1995,3,20,2,1650
1995,3,20,3,1720
1995,3,20,4,1860
1995,3,20,5,2050
1995,3,20,6,2270
1995,3,20,7,2400
1995,3,20,8,2510
1995,3,20,9,2570
1995,3,20,10,2560
1995,3,20,11,2460
1995,3,20,12,2340
1995,3,20,13,2220
1995,3,20,14,2060
1995,3,20,15,1950
1995,3,20,16,1830
1995,3,20,17,1680
1995,3,20,18,1520
1995,3,20,19,1360
1995,3,20,20,1240
1995,3,20,21,1200
1995,3,20,22,1200
1995,3,20,23,1170
1995,3,21,0,1100
1995,3,21,1,1080
1995,3,21,2,1120
1995,3,21,3,1210
1995,3,21,4,1380
1995,3,21,5,1640
1995,3,21,6,1960
1995,3,21,7,2220
1995,3,21,8,2410
1995,3,21,9,2570
1995,3,21,10,2660
1995,3,21,11,2680
1995,3,21,12,2620
1995,3,21,13,2530
1995,3,21,14,2450
1995,3,21,15,2330
1995,3,21,16,2170
1995,3,21,17,1980
1995,3,21,18,1740
1995,3,21,19,1510
1995,3,21,20,1280
1995,3,21,21,1120
1995,3,21,22,1010
1995,3,21,23,950
1995,3,22,0,850
1995,3,22,1,740
1995,3,22,2,700
1995,3,22,3,770
1995,3,22,4,900
1995,3,22,5,1150
1995,3,22,6,1500
1995,3,22,7,1850
1995,3,22,8,2160
1995,3,22,9,2410
1995,3,22,10,2610
1995,3,22,11,2740
1995,3,22,12,2800
1995,3,22,13,2790
1995,3,22,14,2760
1995,3,22,15,2730
1995,3,22,16,2610
1995,3,22,17,2410
1995,3,22,18,2150
1995,3,22,19,1920
1995,3,22,20,1680
1995,3,22,21,1410
1995,3,22,22,1180
1995,3,22,23,1010
1995,3,23,0,910
1995,3,23,1,790
1995,3,23,2,680
1995,3,23,3,620
1995,3,23,4,640
1995,3,23,5,770
1995,3,23,6,1070
1995,3,23,7,1430
1995,3,23,8,1780
1995,3,23,9,2100
1995,3,23,10,2370
1995,3,23,11,2600
1995,3,23,12,2730
1995,3,23,13,2820
1995,3,23,14,2860
1995,3,23,15,2880
1995,3,23,16,2860
1995,3,23,17,2720
1995,3,23,18,2510
1995,3,23,19,2260
1995,3,23,20,1990
1995,3,23,21,1710
1995,3,23,22,1400
1995,3,23,23,1150
1995,3,24,0,970
1995,3,24,1,830
1995,3,24,2,700
1995,3,24,3,600
1995,3,24,4,540
1995,3,24,5,590
1995,3,24,6,740
1995,3,24,7,1010
1995,3,24,8,1370
1995,3,24,9,1750
1995,3,24,10,2060
1995,3,24,11,2350
1995,3,24,12,2610
1995,3,24,13,2790
1995,3,24,14,2910
1995,3,24,15,2960
1995,3,24,16,3020
1995,3,24,17,3000
1995,3,24,18,2880
1995,3,24,19,2670
1995,3,24,20,2400
1995,3,24,21,2080
1995,3,24,22,1750
1995,3,24,23,1440
1995,3,25,0,1160
1995,3,25,1,920
1995,3,25,2,860
1995,3,25,3,800
1995,3,25,4,600
1995,3,25,5,480
1995,3,25,6,600
1995,3,25,7,500
1995,3,25,8,660
1995,3,25,9,940
1995,3,25,10,1330
1995,3,25,11,1530
1995,3,25,12,1730
1995,3,25,13,2010
1995,3,25,14,2190
1995,3,25,15,2290
1995,3,25,16,2440
1995,3,25,17,2520
1995,3,25,18,2420
1995,3,25,19,2380
1995,3,25,20,2300
1995,3,25,21,2060
1995,3,25,22,1780
1995,3,25,23,1420
1995,3,26,0,1150
1995,3,26,1,900
1995,3,26,2,790
1995,3,26,3,780
1995,3,26,4,710
1995,3,26,5,660
1995,3,26,6,750
1995,3,26,7,890
1995,3,26,8,1050
1995,3,26,9,1240
1995,3,26,10,1470
1995,3,26,11,1820
1995,3,26,12,2160
1995,3,26,13,2430
1995,3,26,14,2660
1995,3,26,15,2820
1995,3,26,16,2980
1995,3,26,17,3080
1995,3,26,18,3090
1995,3,26,19,3040
1995,3,26,20,2930
1995,3,26,21,2720
1995,3,26,22,2420
1995,3,26,23,2080
1995,3,27,0,1740
1995,3,27,1,1430
1995,3,27,2,1210
1995,3,27,3,1020
1995,3,27,4,900
1995,3,27,5,790
1995,3,27,6,740
1995,3,27,7,740
1995,3,27,8,790
1995,3,27,9,900
1995,3,27,10,1110
1995,3,27,11,1390
1995,3,27,12,1690
1995,3,27,13,1980
1995,3,27,14,2270
1995,3,27,15,2530
1995,3,27,16,2770
1995,3,27,17,2970
1995,3,27,18,3120
1995,3,27,19,3170
1995,3,27,20,3170
1995,3,27,21,3070
1995,3,27,22,2880
1995,3,27,23,2620
1995,3,28,0,2370
1995,3,28,1,2120
1995,3,28,2,1880
1995,3,28,3,1630
1995,3,28,4,1400
1995,3,28,5,1240
1995,3,28,6,1130
1995,3,28,7,1030
1995,3,28,8,940
1995,3,28,9,910
1995,3,28,10,950
1995,3,28,11,1070
1995,3,28,12,1240
1995,3,28,13,1490
1995,3,28,14,1740
1995,3,28,15,1980
1995,3,28,16,2210
1995,3,28,17,2400
1995,3,28,18,2520
1995,3,28,19,2670
1995,3,28,20,2750
1995,3,28,21,2780
1995,3,28,22,2770
1995,3,28,23,2630
1995,3,29,0,2430
1995,3,29,1,2260
1995,3,29,2,2120
1995,3,29,3,1900
1995,3,29,4,1720
1995,3,29,5,1560
1995,3,29,6,1460
1995,3,29,7,1360
1995,3,29,8,1240
1995,3,29,9,1140
1995,3,29,10,1080
1995,3,29,11,1070
1995,3,29,12,1120
1995,3,29,13,1200
1995,3,29,14,1400
1995,3,29,15,1700
1995,3,29,16,1890
1995,3,29,17,1990
1995,3,29,18,2180
1995,3,29,19,2320
1995,3,29,20,2370
1995,3,29,21,2410
1995,3,29,22,2470
1995,3,29,23,2450
1995,3,30,0,2370
1995,3,30,1,2280
1995,3,30,2,2190
1995,3,30,3,2080
1995,3,30,4,1980
1995,3,30,5,1850
1995,3,30,6,1770
1995,3,30,7,1730
1995,3,30,8,1650
1995,3,30,9,1500
1995,3,30,10,1360
1995,3,30,11,1280
1995,3,30,12,1210
1995,3,30,13,1210
1995,3,30,14,1300
1995,3,30,15,1410
1995,3,30,16,1570
1995,3,30,17,1720
1995,3,30,18,1820
1995,3,30,19,1890
1995,3,30,20,1960
1995,3,30,21,2030
1995,3,30,22,2070
1995,3,30,23,2100
1995,3,31,0,2130